Location: Asheville, NC
(35.6000°N, 82.5500°W)
Time: 19:15:50
(UTC-04:00)

Vanguard 1 Rocket - Pass Details

Date: 16 February 2018
Orbit: 652 x 4225 km, 34.3° (Epoch: 27 May)

Event Time Altitude Azimuth Distance (km) Brightness Sun altitude
Rises 05:27:32 0° 285° (WNW) 8,473 - -22.6°
Reaches altitude 10° 05:33:40 10° 283° (WNW) 7,365 - -21.4°
Exits shadow 05:40:31 23° 280° (W) 6,065 10.9 -20.0°
Maximum altitude 05:57:32 65° 209° (SSW) 3,291 10.0 -16.5°
Drops below altitude 10° 06:10:57 10° 130° (SE) 4,459 11.8 -13.8°
Sets 06:13:41 0° 127° (SE) 5,105 12.3 -13.3°
